Location: Moscow
(55.7500°N, 37.5830°E)
Time: 06:38:43
(UTC+03:00)

Envisat - Pass Details

Date: 28 October 2021
Orbit: 764 x 766 km, 98.2° (Epoch: 28 November)

Event Time Altitude Azimuth Distance (km) Brightness Sun altitude
Rises 06:25:01 0° 13° (NNE) 3,248 6.3 -9.3°
Reaches altitude 10° 06:27:21 10° 10° (N) 2,317 5.5 -8.9°
Maximum altitude 06:32:21 59° 292° (WNW) 886 3.0 -8.2°
Drops below altitude 10° 06:37:20 10° 214° (SW) 2,300 5.3 -7.6°
Sets 06:39:39 0° 211° (SSW) 3,222 6.0 -7.2°
